Temperature
16 16 15 14 14 13 12 13 12 12 12 12 12 12 13 13 13 13 13 13 13 13 13 13 13 13 13 13 13 13 13 14 14 13 13 13 14 14 13 13 13 13 14
16 15 15 14 14 13 12 12 12 12 12 12 12 12 12 12 13 13 13 12 13 12 13 13 13 13 13 13 13 13 13 13 13 13 13 13 14 13 13 13 13 13 13
16 15 15 14 13 13 13 12 12 12 12 12 11 12 12 11 12 12 12 12 12 13 13 13 13 13 13 13 13 13 13 13 13 13 13 13 13 13 13 13 13 13 13
16 15 15 15 14 13 13 12 12 12 12 12 12 12 12 11 11 11 12 12 12 12 12 13 13 13 13 13 13 13 13 13 13 13 13 13 13 12 13 13 13 13 12
16 16 15 15 14 13 13 13 12 12 12 11 12 12 11 11 10 11 11 11 12 13 13 13 12 12 12 12 12 12 13 13 13 13 13 12 12 12 12 12 12 12 12
17 16 15 14 14 13 13 13 12 12 11 11 12 12 11 11 11 11 11 12 12 13 12 12 12 12 12 11 12 12 12 12 12 13 12 12 11 11 11 11 11 11 11
16 16 16 15 14 13 13 13 12 12 11 11 11 12 11 12 11 12 12 12 12 12 12 12 12 12 12 11 11 11 11 11 12 12 12 11 11 11 11 11 11 10 10
16 16 16 15 14 13 13 13 12 12 11 11 12 12 12 12 12 12 12 12 12 11 11 11 12 12 11 11 11 11 11 11 11 11 11 11 11 10 10 11 11 10 10
15 15 15 15 14 14 13 13 12 11 11 11 12 12 12 12 12 12 12 12 11 11 11 11 12 12 11 11 11 11 11 11 11 11 11 11 10 10 10 10 11 11 10
13 13 13 15 15 14 14 13 12 11 11 12 12 11 12 12 12 12 11 11 11 11 11 11 11 11 11 11 11 11 11 10 10 11 11 10 10 10 10 10 10 10 9
11 12 13 13 14 14 14 13 12 12 11 12 12 12 12 12 11 11 11 11 11 11 11 11 11 11 10 10 10 10 10 10 10 10 10 9 9 9 9 9 9 9 9
9 10 11 11 13 14 14 13 12 12 11 12 12 12 12 12 12 11 11 11 11 11 11 11 11 10 10 9 9 9 9 9 9 9 9 8 8 8 8 8 8 8 8
9 8 9 9 11 13 13 12 12 12 12 11 11 12 12 12 12 12 11 11 12 11 11 11 10 9 9 9 9 9 8 8 8 8 8 7 8 8 7 8 8 8 8
8 8 8 9 9 11 13 12 12 12 12 12 11 12 11 11 12 12 12 12 11 11 11 10 10 9 9 9 9 9 8 8 8 8 7 7 7 7 7 7 7 7 7
8 8 8 8 9 9 11 12 12 12 12 12 12 12 12 11 12 12 12 11 11 11 10 10 10 10 9 9 9 9 9 9 8 8 7 7 7 7 7 7 7 7 7
8 7 7 8 8 9 11 12 12 11 11 12 12 12 12 12 12 11 11 11 11 11 10 10 10 10 10 9 9 9 9 9 8 8 7 7 7 7 7 6 6 6 6
7 7 7 7 8 8 10 11 12 11 11 11 11 12 12 12 12 12 11 11 11 10 10 10 10 10 10 10 10 9 9 9 8 8 7 7 7 7 6 6 6 6 6
7 7 7 7 7 8 9 11 12 12 12 11 11 11 11 11 11 11 11 11 10 10 10 10 10 10 10 10 10 9 9 9 9 8 8 7 7 7 6 6 6 6 6
6 7 7 6 7 8 9 10 11 12 12 11 11 11 11 11 11 11 11 11 10 10 10 10 10 10 10 10 10 10 9 9 9 8 8 7 7 7 7 6 6 6 6
6 6 6 7 7 8 8 9 10 11 12 11 11 11 11 11 10 10 11 11 10 10 10 10 10 10 10 10 10 10 10 9 9 9 8 8 7 7 7 6 6 6 6
6 6 6 7 7 8 8 9 10 11 12 12 12 12 12 11 11 11 11 11 10 10 10 10 10 10 10 10 10 10 10 9 9 9 8 8 7 7 7 6 6 6 5
6 7 7 7 7 8 8 9 10 11 12 12 12 12 11 11 11 11 11 11 11 11 10 10 10 10 10 10 10 10 10 10 9 9 8 8 8 7 7 7 6 6 5
6 6 6 7 7 8 9 9 10 11 12 12 11 11 11 11 11 11 11 11 11 10 10 10 10 10 10 10 10 10 10 10 10 9 9 9 8 8 8 7 6 5 5
6 6 6 7 7 8 9 9 10 11 12 12 11 11 11 11 11 11 11 10 10 10 10 10 10 10 10 10 10 10 10 10 10 10 10 9 9 8 8 7 7 6 5
7 7 7 7 7 9 9 10 11 11 12 12 11 12 11 11 11 11 10 10 10 10 10 10 10 10 10 10 10 10 10 10 10 10 10 10 9 9 8 8 7 6 6
7 6 7 8 9 10 10 12 12 11 12 12 12 12 12 12 11 11 11 10 10 10 10 10 10 11 10 10 10 10 10 10 10 10 10 10 9 9 8 8 7 6 6
Wind_Speed
7 7 7 6 4 2 3 5 7 8 8 8 9 8 5 4 3 1 2 3 3 3 4 2 6 8 5 3 4 5 3 3 2 1 3 5 6 5 4 5 7 6 9
9 8 6 6 5 4 3 4 6 7 8 7 8 10 9 7 5 3 4 4 3 3 3 5 8 8 7 5 6 5 3 2 3 4 5 6 6 4 3 4 3 5 6
9 8 7 7 7 6 5 4 5 6 7 7 7 8 10 10 9 7 7 4 2 3 5 7 7 9 8 7 7 6 4 5 6 7 4 2 2 2 3 2 3 2 3
9 9 8 8 8 7 6 5 5 6 5 6 7 6 8 7 7 5 6 5 3 4 6 8 10 9 8 8 7 6 7 8 7 7 4 2 2 2 2 2 2 3 3
8 9 9 8 7 7 6 6 4 3 3 4 4 5 5 3 1 3 5 5 7 9 10 11 10 11 11 8 8 6 8 7 6 5 3 3 3 4 3 3 3 3 2
8 9 8 9 9 8 7 7 5 3 2 3 3 3 3 1 5 5 4 6 9 11 10 9 9 10 9 11 14 13 11 8 4 3 2 3 3 3 3 3 3 2 2
9 10 10 10 10 9 8 7 6 5 5 7 7 4 2 2 2 10 11 7 8 9 8 9 9 8 10 11 13 13 12 9 5 3 2 3 1 3 4 4 3 0 1
10 10 10 11 11 9 9 8 7 6 6 6 5 6 4 6 11 14 13 9 9 8 8 7 8 7 9 10 9 10 9 8 6 3 2 2 2 1 1 2 1 2 3
10 9 10 13 13 11 9 9 7 6 6 6 6 6 6 5 10 13 12 8 8 7 6 7 9 9 11 13 11 10 10 9 9 13 13 9 9 8 5 5 5 4 2
10 11 10 12 15 13 11 9 6 6 7 8 7 7 7 5 7 13 11 7 7 6 6 6 9 11 12 13 10 9 9 6 7 9 10 10 9 8 8 5 2 3 1
11 11 11 14 14 13 10 8 8 8 9 8 7 6 6 6 6 10 13 7 7 7 5 4 5 11 11 11 10 7 4 2 6 8 7 7 6 7 7 6 5 4 3
11 12 11 11 12 12 11 9 10 11 10 9 8 6 4 5 6 8 14 11 10 8 7 5 4 8 9 8 8 8 8 6 6 6 6 5 5 5 5 6 6 5 5
9 11 11 9 10 11 12 11 9 11 10 9 8 7 6 5 4 4 11 16 14 9 8 9 9 8 7 5 7 8 8 6 6 6 4 2 2 3 3 5 6 5 5
11 11 10 9 9 11 10 11 11 10 11 10 9 8 7 6 5 5 6 11 12 9 8 7 6 4 4 3 4 5 4 6 5 4 2 2 3 4 5 4 4 6 5
9 12 8 8 10 10 12 12 12 13 13 12 10 11 11 9 9 13 13 11 10 10 8 4 2 2 2 2 3 3 3 6 5 3 4 4 5 4 3 4 4 4 4
7 9 7 6 10 9 10 8 5 9 16 17 17 14 11 12 16 18 18 19 18 15 7 4 3 4 4 5 5 4 3 5 5 4 4 5 4 3 2 3 3 4 4
7 8 7 8 8 9 9 12 10 4 7 13 17 19 17 16 21 22 20 18 15 12 5 4 5 5 4 5 6 6 5 5 6 5 5 5 4 3 3 3 4 4 4
7 9 8 9 10 9 8 10 12 13 11 8 7 10 15 20 23 22 19 13 8 5 4 5 5 5 4 5 7 6 5 6 5 5 4 4 4 3 2 2 2 2 2
7 8 8 8 9 8 7 7 10 12 13 10 6 4 6 9 13 17 17 11 9 7 6 5 6 5 5 6 8 8 7 7 7 6 5 4 4 4 3 2 2 4 4
8 10 10 8 9 7 6 8 9 11 12 11 11 9 8 8 7 8 7 6 8 7 7 7 7 6 5 6 8 8 7 6 7 6 5 5 3 4 4 4 3 4 3
7 7 10 9 9 6 6 9 10 11 12 11 10 11 17 14 13 14 11 8 8 8 8 7 7 6 6 6 7 8 8 7 6 6 6 5 4 4 4 4 4 5 3
8 7 8 7 6 5 7 9 11 11 12 12 9 11 18 13 11 11 11 10 9 8 8 7 6 6 7 9 10 9 9 8 7 7 6 6 6 6 5 4 4 4 2
9 8 8 7 6 9 10 12 13 12 12 12 11 11 11 9 10 11 11 9 8 7 7 7 6 5 5 7 8 9 9 9 8 9 9 8 7 7 5 4 5 4 3
10 8 8 8 7 9 12 13 13 15 14 12 12 12 13 12 10 10 9 8 8 8 8 8 8 8 9 8 8 10 10 10 11 10 12 11 10 8 6 5 5 6 5
7 6 7 8 8 9 13 14 14 14 14 13 13 12 12 12 10 10 9 9 9 9 9 8 8 9 12 12 10 11 15 15 15 16 13 11 12 11 9 7 6 5 5
5 5 8 7 6 9 12 13 12 13 13 13 12 12 12 12 12 11 9 9 9 9 9 8 10 12 12 13 14 15 15 16 18 20 17 11 11 10 9 7 8 6 6
Wind_Direction
196 193 181 184 186 234 299 316 319 322 336 355 4 347 343 335 291 192 175 107 117 88 57 108 122 110 109 137 109 116 132 128 126 40 30 19 26 358 357 24 52 35 12
204 211 209 205 205 223 266 293 301 318 337 358 13 16 11 23 26 56 75 95 120 144 145 115 112 111 107 99 92 98 107 119 124 101 52 30 23 349 354 36 46 36 17
202 209 221 215 216 226 237 255 280 309 331 355 13 18 29 28 30 31 75 80 113 138 118 109 105 101 94 88 83 88 95 92 100 101 82 23 11 346 359 9 51 23 10
205 208 215 213 211 220 235 246 276 301 319 6 18 27 49 32 20 45 90 121 142 103 87 80 72 75 85 88 84 74 85 88 89 94 90 34 12 346 18 7 358 6 0
208 210 212 209 209 216 228 233 244 273 325 38 61 80 67 59 261 182 181 160 110 82 66 61 61 67 74 79 84 79 84 88 86 83 73 39 12 4 357 341 349 329 321
225 221 204 204 210 212 219 217 208 220 210 172 182 128 111 158 271 219 155 104 91 84 78 66 55 57 73 79 78 71 71 82 83 81 76 55 11 340 332 334 351 10 346
242 224 198 199 208 211 209 205 201 199 178 190 188 176 181 305 119 109 101 96 96 90 83 76 68 55 69 75 69 62 56 59 68 124 108 68 19 332 331 355 14 357 250
233 221 196 193 204 207 201 200 199 175 174 168 173 176 128 36 78 90 91 89 87 85 91 99 95 75 78 85 72 55 39 31 20 27 77 138 159 287 260 243 267 289 269
289 241 208 191 195 203 201 192 190 167 166 173 175 170 114 66 88 95 95 92 92 90 91 88 88 81 80 82 78 65 47 25 24 47 57 70 78 59 38 41 18 33 351
322 308 267 205 188 200 199 178 174 170 170 171 168 174 151 131 109 113 115 119 109 92 71 64 79 86 81 81 83 77 66 11 17 37 33 32 36 39 42 56 70 93 34
317 318 302 245 193 195 187 171 166 167 162 168 170 171 172 161 137 136 143 140 139 128 117 100 84 95 94 90 88 77 83 49 50 57 44 32 21 23 19 25 35 86 79
318 316 299 266 221 188 179 172 169 162 165 171 170 171 187 181 163 158 166 161 154 144 149 150 142 125 119 104 89 89 89 83 71 63 53 35 21 8 357 21 30 39 52
303 302 300 289 238 202 178 170 169 166 171 176 176 176 183 183 175 184 176 162 150 146 154 159 165 149 117 84 66 81 91 88 82 74 62 26 338 321 1 22 22 21 33
299 294 296 296 269 220 189 171 173 178 180 179 177 179 175 175 173 161 147 138 138 141 143 146 157 136 115 103 82 73 99 115 115 116 104 34 14 32 40 25 28 21 32
276 279 271 284 278 234 202 184 182 187 186 182 183 176 173 183 189 172 161 156 155 149 135 125 128 140 136 121 108 113 119 116 108 88 83 67 50 44 27 15 39 46 52
263 272 262 271 280 257 208 184 175 192 193 184 173 171 183 176 167 171 167 160 155 144 131 143 164 194 186 177 166 160 153 131 124 122 98 82 70 67 47 25 44 67 62
260 278 276 263 271 274 225 191 177 158 191 187 179 177 173 168 170 177 174 166 161 150 143 159 170 192 209 188 169 166 162 147 143 130 105 97 94 87 72 40 29 46 49
249 263 262 265 252 254 242 202 180 176 178 176 172 177 179 172 175 175 163 145 148 160 161 171 184 200 189 172 168 169 155 149 145 142 131 121 119 118 95 55 37 58 68
229 241 247 261 263 249 250 206 183 177 180 169 139 125 134 155 165 162 157 158 167 173 176 185 191 196 179 182 173 166 161 164 158 156 161 162 160 141 121 107 76 79 94
227 233 241 258 275 247 229 200 187 177 176 172 171 166 144 133 155 169 178 162 170 176 183 190 197 200 180 178 170 164 167 172 158 160 171 180 179 153 142 132 106 104 103
236 238 243 255 268 231 215 197 184 176 172 170 170 168 166 172 176 183 185 178 182 183 184 187 193 203 188 177 176 175 179 184 179 171 178 177 171 163 154 131 121 133 133
246 248 249 249 256 246 214 207 182 172 168 165 166 172 169 171 171 178 185 190 189 185 180 177 192 204 189 183 182 182 186 193 191 181 181 176 177 175 166 142 136 145 140
242 231 242 245 244 255 216 200 180 170 167 167 163 157 168 176 177 184 188 187 183 188 185 186 196 209 203 195 184 182 186 197 198 182 175 172 176 179 175 162 156 162 181
235 226 240 249 247 235 195 179 171 169 168 166 164 164 177 184 182 186 184 179 187 198 191 191 197 205 208 210 201 201 201 199 190 179 170 172 180 182 181 173 170 177 186
217 227 244 251 229 200 175 170 166 163 166 169 171 171 181 184 183 186 188 188 191 194 198 196 200 206 207 208 205 214 216 201 185 179 175 176 180 182 184 180 173 172 177
193 232 262 247 210 172 163 165 164 161 163 171 175 174 179 185 189 194 188 187 188 193 198 197 202 205 203 207 206 206 201 193 188 186 183 182 184 185 184 183 177 174 170
Height
1479 1477 1475 1473 1471 1469 1466 1463 1459 1455 1452 1450 1447 1444 1443 1442 1440 1439 1438 1439 1440 1441 1442 1446 1448 1450 1453 1456 1456 1459 1461 1463 1464 1466 1468 1468 1468 1468 1467 1466 1463 1461 1459
1477 1475 1471 1470 1467 1466 1464 1462 1459 1456 1453 1450 1448 1446 1444 1442 1441 1439 1437 1440 1443 1445 1446 1448 1451 1451 1453 1455 1457 1459 1461 1463 1465 1465 1467 1468 1468 1469 1468 1466 1465 1462 1458
1474 1472 1469 1466 1465 1463 1462 1460 1459 1457 1454 1452 1450 1448 1446 1444 1443 1441 1440 1443 1446 1448 1449 1450 1451 1453 1454 1455 1457 1459 1461 1463 1465 1466 1468 1470 1470 1469 1468 1467 1466 1463 1460
1470 1468 1466 1464 1463 1461 1459 1458 1458 1457 1455 1452 1451 1449 1447 1446 1446 1445 1445 1447 1449 1450 1452 1452 1453 1454 1455 1456 1458 1460 1461 1464 1467 1468 1470 1471 1471 1469 1468 1467 1465 1463 1461
1466 1464 1462 1461 1461 1460 1458 1456 1456 1457 1455 1454 1452 1451 1450 1448 1450 1451 1450 1451 1452 1452 1453 1453 1454 1456 1458 1460 1460 1462 1464 1467 1468 1468 1470 1470 1469 1468 1467 1466 1465 1464 1462
1462 1460 1459 1457 1457 1457 1456 1455 1455 1456 1455 1455 1454 1454 1453 1453 1455 1457 1458 1456 1455 1455 1456 1457 1458 1459 1462 1462 1462 1463 1465 1467 1468 1468 1468 1469 1469 1469 1468 1468 1467 1465 1463
1460 1456 1454 1453 1452 1452 1453 1453 1453 1454 1454 1454 1456 1456 1456 1457 1459 1460 1461 1460 1460 1460 1460 1461 1462 1463 1463 1464 1465 1466 1467 1469 1470 1469 1469 1469 1470 1469 1470 1469 1466 1466 1464
1453 1452 1450 1449 1448 1447 1447 1450 1451 1451 1453 1454 1456 1457 1458 1459 1461 1462 1463 1463 1462 1463 1464 1465 1465 1464 1464 1466 1467 1467 1468 1469 1469 1469 1469 1468 1469 1470 1470 1470 1468 1466 1466
1446 1446 1444 1443 1443 1443 1443 1444 1447 1449 1451 1453 1455 1457 1458 1459 1461 1463 1464 1464 1465 1465 1464 1465 1465 1465 1465 1465 1466 1467 1468 1468 1468 1468 1469 1469 1470 1471 1470 1468 1466 1465 1464
1441 1439 1439 1438 1437 1438 1438 1438 1443 1447 1449 1452 1453 1456 1459 1459 1461 1462 1464 1465 1466 1466 1466 1467 1467 1466 1465 1466 1467 1468 1468 1469 1470 1471 1470 1470 1470 1471 1470 1468 1465 1464 1463
1433 1430 1429 1429 1431 1432 1432 1433 1437 1443 1446 1449 1452 1454 1457 1459 1459 1461 1463 1465 1466 1467 1468 1468 1468 1467 1467 1468 1468 1469 1469 1471 1472 1472 1472 1472 1471 1470 1469 1467 1465 1464 1463
1427 1421 1418 1419 1421 1424 1425 1428 1431 1437 1441 1445 1448 1451 1454 1456 1457 1460 1462 1464 1465 1466 1467 1468 1468 1469 1469 1470 1470 1469 1470 1472 1472 1472 1472 1472 1470 1470 1469 1468 1467 1466 1464
1420 1414 1409 1410 1411 1415 1417 1421 1426 1430 1435 1439 1443 1446 1450 1452 1454 1457 1460 1463 1465 1466 1468 1469 1470 1470 1471 1472 1472 1472 1473 1473 1473 1473 1472 1472 1471 1470 1469 1469 1468 1467 1465
1410 1406 1402 1404 1402 1404 1409 1412 1418 1423 1428 1432 1436 1441 1444 1448 1450 1453 1457 1461 1464 1466 1468 1469 1471 1472 1473 1474 1474 1474 1474 1474 1474 1473 1472 1472 1472 1470 1470 1469 1468 1466 1464
1402 1400 1398 1397 1396 1396 1400 1403 1409 1414 1420 1425 1430 1435 1440 1443 1446 1449 1453 1457 1461 1465 1466 1468 1469 1472 1473 1473 1473 1474 1474 1474 1473 1473 1472 1472 1472 1471 1471 1470 1468 1467 1465
1393 1392 1390 1390 1389 1389 1392 1396 1401 1407 1414 1421 1426 1431 1435 1440 1444 1446 1450 1455 1458 1461 1464 1465 1468 1470 1472 1472 1473 1474 1474 1474 1473 1474 1472 1471 1473 1473 1472 1471 1470 1468 1467
1387 1385 1383 1385 1384 1383 1385 1388 1393 1400 1407 1414 1420 1426 1430 1435 1441 1444 1447 1452 1455 1458 1461 1464 1466 1468 1470 1470 1471 1473 1474 1473 1474 1474 1472 1472 1474 1474 1473 1472 1471 1469 1467
1380 1379 1380 1380 1379 1378 1377 1380 1385 1391 1397 1404 1412 1419 1425 1430 1436 1441 1445 1449 1452 1455 1459 1461 1464 1466 1467 1468 1469 1471 1472 1472 1473 1474 1474 1473 1474 1474 1473 1472 1471 1469 1469
1373 1374 1374 1373 1372 1369 1369 1372 1379 1385 1391 1397 1404 1412 1418 1425 1431 1436 1441 1444 1447 1451 1455 1457 1460 1462 1463 1465 1467 1469 1470 1471 1472 1473 1473 1474 1473 1473 1473 1472 1471 1470 1469
1364 1364 1364 1364 1362 1360 1362 1366 1372 1379 1385 1391 1398 1405 1412 1418 1424 1431 1435 1440 1444 1447 1450 1453 1456 1458 1460 1462 1464 1466 1469 1470 1471 1471 1472 1473 1473 1472 1471 1471 1470 1469 1468
1354 1355 1355 1355 1352 1352 1356 1362 1368 1374 1380 1386 1393 1400 1406 1412 1419 1425 1430 1435 1439 1443 1445 1447 1450 1454 1456 1458 1461 1464 1466 1468 1469 1470 1470 1471 1471 1471 1470 1470 1469 1468 1468
1346 1347 1347 1347 1346 1347 1352 1358 1364 1370 1377 1384 1390 1397 1403 1409 1415 1420 1425 1431 1435 1438 1441 1444 1446 1449 1452 1455 1458 1460 1463 1465 1467 1468 1468 1469 1469 1470 1469 1468 1467 1467 1467
1339 1341 1340 1339 1342 1342 1347 1354 1359 1366 1374 1381 1387 1393 1399 1405 1411 1416 1421 1426 1430 1433 1436 1439 1443 1446 1449 1452 1455 1458 1460 1462 1464 1465 1465 1465 1466 1466 1466 1465 1464 1464 1464
1332 1333 1333 1332 1334 1338 1343 1350 1357 1364 1372 1378 1384 1390 1396 1401 1406 1411 1416 1421 1425 1429 1431 1435 1439 1442 1446 1449 1452 1454 1456 1458 1460 1461 1462 1462 1463 1463 1463 1462 1461 1461 1460
1327 1327 1327 1326 1328 1333 1341 1348 1355 1362 1369 1375 1381 1387 1393 1398 1402 1407 1411 1415 1420 1423 1426 1430 1434 1438 1442 1445 1448 1450 1452 1454 1455 1456 1457 1458 1459 1459 1459 1458 1457 1457 1457
1323 1323 1322 1321 1326 1333 1340 1346 1353 1359 1366 1372 1379 1385 1390 1394 1399 1403 1406 1410 1414 1417 1421 1426 1430 1434 1438 1441 1444 1446 1447 1448 1450 1452 1453 1453 1454 1454 1454 1454 1453 1454 1454